#
# The Tor Project
#
# URL: https://metrics.torproject.org/networksize.csv?start=2010-10-13&end=2015-01-11
#
date,relays,bridges
2010-10-13,1991,497
2010-10-14,1981,499
2010-10-15,1990,507
2010-10-16,2028,511
2010-10-17,2058,505
2010-10-18,2002,501
2010-10-19,2016,492
2010-10-20,2006,500
2010-10-21,1989,491
2010-10-22,1972,498
2010-10-23,1955,508
2010-10-24,1955,503
2010-10-25,1926,491
2010-10-26,1913,497
2010-10-27,1915,479
2010-10-28,1920,475
2010-10-29,1910,494
2010-10-30,1917,496
2010-10-31,1928,490
2010-11-01,1953,487
2010-11-02,1891,485
2010-11-03,1877,484
2010-11-04,1859,480
2010-11-05,1867,487
2010-11-06,1896,489
2010-11-07,1908,501
2010-11-08,1863,486
2010-11-09,1854,486
2010-11-10,1860,487
2010-11-11,1878,499
2010-11-12,1893,492
2010-11-13,1908,497
2010-11-14,1913,499
2010-11-15,1891,487
2010-11-16,1863,490
2010-11-17,1855,483
2010-11-18,1808,472
2010-11-19,1778,460
2010-11-20,1772,468
2010-11-21,1761,461
2010-11-22,1729,453
2010-11-23,1735,452
2010-11-24,1736,445
2010-11-25,1716,459
2010-11-26,1716,453
2010-11-27,1762,467
2010-11-28,1785,485
2010-11-29,1760,477
2010-11-30,1771,482
2010-12-01,1780,482
2010-12-02,1786,477
2010-12-03,1814,478
2010-12-04,1855,491
2010-12-05,1897,495
2010-12-06,1895,486
2010-12-07,1912,491
2010-12-08,1937,489
2010-12-09,1930,494
2010-12-10,1946,493
2010-12-11,2009,504
2010-12-12,2050,513
2010-12-13,2003,499
2010-12-14,2019,509
2010-12-15,2033,511
2010-12-16,2000,497
2010-12-17,1985,497
2010-12-18,2011,518
2010-12-19,2051,525
2010-12-20,1968,510
2010-12-21,1973,504
2010-12-22,1983,512
2010-12-23,1982,518
2010-12-24,1972,504
2010-12-25,1963,498
2010-12-26,1978,494
2010-12-27,2007,501
2010-12-28,2030,504
2010-12-29,2033,497
2010-12-30,2047,489
2010-12-31,2048,507
2011-01-01,2059,509
2011-01-02,2096,531
2011-01-03,2106,529
2011-01-04,2114,536
2011-01-05,2130,537
2011-01-06,2145,537
2011-01-07,2128,540
2011-01-08,2171,548
2011-01-09,2181,559
2011-01-10,2125,535
2011-01-11,2131,539
2011-01-12,2104,528
2011-01-13,2090,529
2011-01-14,2108,519
2011-01-15,2127,557
2011-01-16,2145,456
2011-01-17,2138,387
2011-01-18,2133,551
2011-01-19,2129,559
2011-01-20,2160,553
2011-01-21,2162,565
2011-01-22,2195,575
2011-01-23,2172,580
2011-01-24,2137,555
2011-01-25,2106,554
2011-01-26,2122,562
2011-01-27,2120,457
2011-01-28,2210,545
2011-01-29,2350,733
2011-01-30,2421,774
2011-01-31,2396,711
2011-02-01,2388,707
2011-02-02,2391,707
2011-02-03,2417,707
2011-02-04,2429,707
2011-02-05,2450,707
2011-02-06,2449,707
2011-02-07,2377,707
2011-02-08,2362,707
2011-02-09,2363,707
2011-02-10,2344,707
2011-02-11,2351,707
2011-02-12,2391,707
2011-02-13,2414,707
2011-02-14,2358,707
2011-02-15,2369,707
2011-02-16,2389,343
2011-02-17,2402,682
2011-02-18,2386,691
2011-02-19,2428,699
2011-02-20,2442,709
2011-02-21,2431,696
2011-02-22,2423,696
2011-02-23,2414,677
2011-02-24,2403,680
2011-02-25,2400,673
2011-02-26,2429,677
2011-02-27,2409,681
2011-02-28,2389,663
2011-03-01,2373,676
2011-03-02,2386,682
2011-03-03,2393,677
2011-03-04,2402,658
2011-03-05,2424,654
2011-03-06,2328,674
2011-03-07,2158,650
2011-03-08,2390,649
2011-03-09,2372,644
2011-03-10,2365,639
2011-03-11,2374,650
2011-03-12,2428,665
2011-03-13,2441,679
2011-03-14,2398,658
2011-03-15,2389,653
2011-03-16,2366,660
2011-03-17,2373,658
2011-03-18,2386,651
2011-03-19,2421,667
2011-03-20,2413,665
2011-03-21,2375,653
2011-03-22,2371,664
2011-03-23,2366,648
2011-03-24,2399,647
2011-03-25,2390,646
2011-03-26,2398,662
2011-03-27,2426,660
2011-03-28,2385,649
2011-03-29,2383,659
2011-03-30,2360,646
2011-03-31,2350,655
2011-04-01,2366,647
2011-04-02,2395,647
2011-04-03,2422,646
2011-04-04,2393,641
2011-04-05,2370,627
2011-04-06,2397,651
2011-04-07,2373,645
2011-04-08,2378,638
2011-04-09,2410,646
2011-04-10,2424,641
2011-04-11,2372,638
2011-04-12,2377,635
2011-04-13,2391,629
2011-04-14,2387,626
2011-04-15,2407,616
2011-04-16,2436,638
2011-04-17,2438,637
2011-04-18,2410,623
2011-04-19,2398,621
2011-04-20,2386,620
2011-04-21,2384,618
2011-04-22,2387,616
2011-04-23,2373,612
2011-04-24,2374,609
2011-04-25,2376,607
2011-04-26,2396,620
2011-04-27,2371,540
2011-04-28,2361,617
2011-04-29,2376,618
2011-04-30,2387,618
2011-05-01,2394,622
2011-05-02,2406,609
2011-05-03,2376,597
2011-05-04,2370,606
2011-05-05,2359,609
2011-05-06,2378,603
2011-05-07,2416,613
2011-05-08,2416,609
2011-05-09,2376,613
2011-05-10,2374,614
2011-05-11,2365,605
2011-05-12,2371,604
2011-05-13,2365,609
2011-05-14,2387,627
2011-05-15,2422,630
2011-05-16,2376,609
2011-05-17,2351,606
2011-05-18,2345,610
2011-05-19,2353,623
2011-05-20,2381,627
2011-05-21,2380,633
2011-05-22,2366,642
2011-05-23,2340,627
2011-05-24,2327,634
2011-05-25,2304,632
2011-05-26,2302,646
2011-05-27,2301,616
2011-05-28,2320,615
2011-05-29,2314,619
2011-05-30,2268,620
2011-05-31,2271,620
2011-06-01,2345,640
2011-06-02,2499,660
2011-06-03,2520,661
2011-06-04,2556,671
2011-06-05,2581,673
2011-06-06,2570,672
2011-06-07,2586,673
2011-06-08,2586,690
2011-06-09,2617,680
2011-06-10,2609,683
2011-06-11,2603,673
2011-06-12,2605,679
2011-06-13,2655,676
2011-06-14,2629,673
2011-06-15,2610,671
2011-06-16,2588,662
2011-06-17,2588,653
2011-06-18,2616,663
2011-06-19,2635,676
2011-06-20,2597,674
2011-06-21,2586,671
2011-06-22,2613,680
2011-06-23,2601,563
2011-06-24,2598,676
2011-06-25,2616,669
2011-06-26,2611,683
2011-06-27,2568,659
2011-06-28,2567,666
2011-06-29,2550,661
2011-06-30,2557,660
2011-07-01,2583,666
2011-07-02,2583,667
2011-07-03,2597,667
2011-07-04,2565,649
2011-07-05,2557,666
2011-07-06,2576,674
2011-07-07,2588,676
2011-07-08,2596,678
2011-07-09,2611,692
2011-07-10,2617,680
2011-07-11,2573,664
2011-07-12,2568,664
2011-07-13,2547,677
2011-07-14,2545,670
2011-07-15,2554,663
2011-07-16,2567,680
2011-07-17,2583,672
2011-07-18,2576,663
2011-07-19,2583,675
2011-07-20,2564,678
2011-07-21,2568,687
2011-07-22,2555,674
2011-07-23,2572,666
2011-07-24,2569,671
2011-07-25,2549,553
2011-07-26,2552,547
2011-07-27,2551,665
2011-07-28,2561,661
2011-07-29,2537,660
2011-07-30,2563,622
2011-07-31,2549,
2011-08-01,2531,
2011-08-02,2530,
2011-08-03,2524,
2011-08-04,2539,
2011-08-05,2534,
2011-08-06,2558,
2011-08-07,2554,686
2011-08-08,2548,663
2011-08-09,2538,664
2011-08-10,2519,645
2011-08-11,2505,647
2011-08-12,2508,656
2011-08-13,2523,655
2011-08-14,2549,647
2011-08-15,2541,657
2011-08-16,2542,651
2011-08-17,2544,651
2011-08-18,2532,649
2011-08-19,2531,628
2011-08-20,2537,623
2011-08-21,2519,633
2011-08-22,2497,625
2011-08-23,2473,622
2011-08-24,2471,611
2011-08-25,2493,634
2011-08-26,2493,609
2011-08-27,2514,626
2011-08-28,2495,609
2011-08-29,2490,607
2011-08-30,2488,606
2011-08-31,2512,615
2011-09-01,2504,624
2011-09-02,2508,631
2011-09-03,2515,626
2011-09-04,2507,632
2011-09-05,2492,626
2011-09-06,2492,625
2011-09-07,2476,638
2011-09-08,2466,630
2011-09-09,2477,628
2011-09-10,2487,632
2011-09-11,2513,633
2011-09-12,2473,627
2011-09-13,2474,623
2011-09-14,2485,619
2011-09-15,2495,658
2011-09-16,2490,697
2011-09-17,2515,675
2011-09-18,2508,663
2011-09-19,2479,648
2011-09-20,2481,647
2011-09-21,2504,645
2011-09-22,2490,636
2011-09-23,2489,626
2011-09-24,2509,618
2011-09-25,2516,638
2011-09-26,2508,630
2011-09-27,2500,617
2011-09-28,2484,626
2011-09-29,2462,638
2011-09-30,2477,625
2011-10-01,2511,629
2011-10-02,2500,645
2011-10-03,2456,635
2011-10-04,2452,625
2011-10-05,2473,631
2011-10-06,2443,648
2011-10-07,2442,646
2011-10-08,2462,643
2011-10-09,2483,644
2011-10-10,2460,644
2011-10-11,2437,636
2011-10-12,2437,634
2011-10-13,2389,631
2011-10-14,2348,635
2011-10-15,2360,637
2011-10-16,2367,633
2011-10-17,2324,615
2011-10-18,2315,616
2011-10-19,2335,637
2011-10-20,2333,635
2011-10-21,2319,629
2011-10-22,2338,635
2011-10-23,2382,634
2011-10-24,2354,637
2011-10-25,2371,634
2011-10-26,2383,657
2011-10-27,2390,646
2011-10-28,2369,653
2011-10-29,2352,499
2011-10-30,2367,627
2011-10-31,2366,643
2011-11-01,2385,674
2011-11-02,2387,599
2011-11-03,2397,512
2011-11-04,2378,647
2011-11-05,2365,642
2011-11-06,2379,658
2011-11-07,2355,647
2011-11-08,2342,646
2011-11-09,2319,640
2011-11-10,2318,634
2011-11-11,2323,645
2011-11-12,2343,641
2011-11-13,2355,634
2011-11-14,2360,635
2011-11-15,2383,637
2011-11-16,2408,646
2011-11-17,2371,652
2011-11-18,2397,656
2011-11-19,2407,674
2011-11-20,2414,679
2011-11-21,2376,673
2011-11-22,2393,675
2011-11-23,2419,717
2011-11-24,2397,728
2011-11-25,2358,613
2011-11-26,2419,668
2011-11-27,2436,762
2011-11-28,2392,758
2011-11-29,2377,755
2011-11-30,2390,768
2011-12-01,2404,760
2011-12-02,2392,762
2011-12-03,2416,775
2011-12-04,2445,771
2011-12-05,2442,769
2011-12-06,2425,787
2011-12-07,2425,790
2011-12-08,2420,784
2011-12-09,2424,771
2011-12-10,2449,779
2011-12-11,2469,778
2011-12-12,2446,768
2011-12-13,2432,788
2011-12-14,2430,793
2011-12-15,2428,790
2011-12-16,2447,792
2011-12-17,2450,797
2011-12-18,2470,791
2011-12-19,2435,778
2011-12-20,2416,787
2011-12-21,2413,786
2011-12-22,2435,767
2011-12-23,2436,757
2011-12-24,2425,743
2011-12-25,2412,739
2011-12-26,2412,698
2011-12-27,2432,795
2011-12-28,2427,774
2011-12-29,2430,779
2011-12-30,2452,789
2011-12-31,2435,781
2012-01-01,2454,784
2012-01-02,2499,802
2012-01-03,2520,818
2012-01-04,2528,819
2012-01-05,2516,815
2012-01-06,2515,817
2012-01-07,2315,804
2012-01-08,2435,718
2012-01-09,2433,663
2012-01-10,2452,702
2012-01-11,2327,768
2012-01-12,2461,829
2012-01-13,2524,823
2012-01-14,2562,818
2012-01-15,2577,816
2012-01-16,2560,822
2012-01-17,2475,836
2012-01-18,2594,845
2012-01-19,2587,841
2012-01-20,2638,840
2012-01-21,2689,838
2012-01-22,2705,854
2012-01-23,2557,861
2012-01-24,2575,877
2012-01-25,2584,880
2012-01-26,2586,878
2012-01-27,2627,879
2012-01-28,2651,873
2012-01-29,2665,866
2012-01-30,2631,833
2012-01-31,2628,847
2012-02-01,2668,851
2012-02-02,2682,851
2012-02-03,2701,839
2012-02-04,2761,839
2012-02-05,2804,869
2012-02-06,2770,860
2012-02-07,2744,875
2012-02-08,2749,871
2012-02-09,2766,872
2012-02-10,2776,880
2012-02-11,2839,914
2012-02-12,2880,1001
2012-02-13,2872,1046
2012-02-14,2871,1075
2012-02-15,2860,1071
2012-02-16,2872,1065
2012-02-17,2858,1070
2012-02-18,2886,1066
2012-02-19,2906,1067
2012-02-20,2878,1059
2012-02-21,2873,1078
2012-02-22,2891,1082
2012-02-23,2861,1062
2012-02-24,2861,1062
2012-02-25,2882,1068
2012-02-26,2896,1074
2012-02-27,2844,1085
2012-02-28,2865,1106
2012-02-29,2849,1090
2012-03-01,2869,1090
2012-03-02,2861,1078
2012-03-03,2887,1072
2012-03-04,2919,1077
2012-03-05,2894,1070
2012-03-06,2917,977
2012-03-07,2901,947
2012-03-08,2900,941
2012-03-09,2877,937
2012-03-10,2902,944
2012-03-11,2895,959
2012-03-12,2866,943
2012-03-13,2854,951
2012-03-14,2848,944
2012-03-15,2846,925
2012-03-16,2845,927
2012-03-17,2875,935
2012-03-18,2905,947
2012-03-19,2878,940
2012-03-20,2847,953
2012-03-21,2816,961
2012-03-22,2829,966
2012-03-23,2829,987
2012-03-24,2864,986
2012-03-25,2885,999
2012-03-26,2846,998
2012-03-27,2835,1008
2012-03-28,2833,1011
2012-03-29,2833,1007
2012-03-30,2828,1014
2012-03-31,2883,1022
2012-04-01,2909,1027
2012-04-02,2900,1025
2012-04-03,2900,1042
2012-04-04,2932,1054
2012-04-05,2927,1046
2012-04-06,2918,1047
2012-04-07,2929,1037
2012-04-08,2940,1033
2012-04-09,2935,1055
2012-04-10,2911,1061
2012-04-11,2903,1064
2012-04-12,2888,1052
2012-04-13,2905,1049
2012-04-14,2931,1044
2012-04-15,2932,1051
2012-04-16,2905,1061
2012-04-17,2875,1064
2012-04-18,2864,1069
2012-04-19,2876,1071
2012-04-20,2851,1064
2012-04-21,2872,1055
2012-04-22,2896,1070
2012-04-23,2877,1065
2012-04-24,2887,1078
2012-04-25,2904,970
2012-04-26,2910,930
2012-04-27,2906,929
2012-04-28,2927,691
2012-04-29,2920,883
2012-04-30,2927,919
2012-05-01,2977,940
2012-05-02,2977,923
2012-05-03,2973,926
2012-05-04,2972,928
2012-05-05,3008,928
2012-05-06,3017,932
2012-05-07,2970,942
2012-05-08,2937,951
2012-05-09,2951,949
2012-05-10,2956,964
2012-05-11,2946,964
2012-05-12,2970,965
2012-05-13,2985,962
2012-05-14,2963,958
2012-05-15,2945,964
2012-05-16,2961,966
2012-05-17,2981,961
2012-05-18,2924,976
2012-05-19,2899,969
2012-05-20,2911,967
2012-05-21,2867,979
2012-05-22,2861,981
2012-05-23,2869,974
2012-05-24,2864,968
2012-05-25,2869,975
2012-05-26,2889,976
2012-05-27,2883,980
2012-05-28,2888,993
2012-05-29,2870,991
2012-05-30,2875,989
2012-05-31,2882,996
2012-06-01,2900,990
2012-06-02,2899,987
2012-06-03,2923,981
2012-06-04,2932,981
2012-06-05,2934,992
2012-06-06,2941,990
2012-06-07,2932,986
2012-06-08,2924,988
2012-06-09,2920,974
2012-06-10,2944,977
2012-06-11,2941,982
2012-06-12,2943,993
2012-06-13,2930,981
2012-06-14,2909,968
2012-06-15,2915,979
2012-06-16,2945,989
2012-06-17,2953,972
2012-06-18,2946,952
2012-06-19,2941,961
2012-06-20,2952,972
2012-06-21,2949,980
2012-06-22,2958,978
2012-06-23,2966,984
2012-06-24,3013,1003
2012-06-25,2987,994
2012-06-26,2981,1000
2012-06-27,2981,1000
2012-06-28,2978,988
2012-06-29,2955,981
2012-06-30,2929,979
2012-07-01,2964,977
2012-07-02,2967,1002
2012-07-03,2982,1011
2012-07-04,2975,1011
2012-07-05,2978,991
2012-07-06,2996,990
2012-07-07,2986,975
2012-07-08,3000,971
2012-07-09,3003,982
2012-07-10,3002,993
2012-07-11,2968,985
2012-07-12,2970,992
2012-07-13,2988,985
2012-07-14,3012,983
2012-07-15,3032,985
2012-07-16,3036,986
2012-07-17,3017,1008
2012-07-18,3008,1007
2012-07-19,2999,1001
2012-07-20,3000,987
2012-07-21,3021,984
2012-07-22,3039,983
2012-07-23,3036,998
2012-07-24,3006,988
2012-07-25,3011,990
2012-07-26,3007,986
2012-07-27,3001,990
2012-07-28,3023,983
2012-07-29,3038,980
2012-07-30,3034,997
2012-07-31,3022,1009
2012-08-01,3040,1006
2012-08-02,3019,1012
2012-08-03,2978,1018
2012-08-04,2983,1006
2012-08-05,3014,1009
2012-08-06,3026,1027
2012-08-07,3039,1035
2012-08-08,3034,1040
2012-08-09,3043,1036
2012-08-10,3039,1036
2012-08-11,3059,1028
2012-08-12,3082,1023
2012-08-13,3079,1040
2012-08-14,3073,1051
2012-08-15,3052,1044
2012-08-16,3032,1033
2012-08-17,3025,1029
2012-08-18,3044,1030
2012-08-19,3034,1030
2012-08-20,3034,1035
2012-08-21,3045,1052
2012-08-22,3044,1056
2012-08-23,3060,1052
2012-08-24,3056,1033
2012-08-25,3054,1032
2012-08-26,3080,1037
2012-08-27,3041,1057
2012-08-28,3060,1063
2012-08-29,3058,1051
2012-08-30,3040,1056
2012-08-31,3062,1060
2012-09-01,3091,1062
2012-09-02,3087,1071
2012-09-03,3073,1066
2012-09-04,3073,1072
2012-09-05,3061,1062
2012-09-06,3041,1060
2012-09-07,3067,1059
2012-09-08,3082,1040
2012-09-09,3092,1053
2012-09-10,3093,1064
2012-09-11,3117,1069
2012-09-12,3093,1065
2012-09-13,3076,995
2012-09-14,3094,986
2012-09-15,3114,985
2012-09-16,3057,985
2012-09-17,2988,995
2012-09-18,2988,1011
2012-09-19,2967,1011
2012-09-20,2961,1014
2012-09-21,2951,1017
2012-09-22,2940,1017
2012-09-23,2944,1020
2012-09-24,2913,1026
2012-09-25,2893,1023
2012-09-26,2877,1014
2012-09-27,2868,1012
2012-09-28,2896,1016
2012-09-29,2916,1015
2012-09-30,2913,1017
2012-10-01,2921,1019
2012-10-02,2912,1035
2012-10-03,2952,1028
2012-10-04,2947,1021
2012-10-05,2950,1007
2012-10-06,2943,1005
2012-10-07,2933,1006
2012-10-08,2915,1014
2012-10-09,2923,1029
2012-10-10,2914,1035
2012-10-11,2894,1029
2012-10-12,2894,1021
2012-10-13,2916,1019
2012-10-14,2929,1022
2012-10-15,2937,1019
2012-10-16,2952,1033
2012-10-17,2960,1044
2012-10-18,2955,1038
2012-10-19,2964,1029
2012-10-20,2970,1036
2012-10-21,2966,1032
2012-10-22,2978,1046
2012-10-23,3000,1048
2012-10-24,2996,1045
2012-10-25,2991,1042
2012-10-26,2985,1044
2012-10-27,3004,1048
2012-10-28,2999,1041
2012-10-29,2958,1045
2012-10-30,2920,1028
2012-10-31,2925,1033
2012-11-01,2957,1059
2012-11-02,2975,1050
2012-11-03,3002,1048
2012-11-04,3003,1049
2012-11-05,2987,1061
2012-11-06,2968,1071
2012-11-07,2982,1067
2012-11-08,2973,1073
2012-11-09,2986,1060
2012-11-10,3015,1074
2012-11-11,3035,1069
2012-11-12,3008,1079
2012-11-13,3022,1068
2012-11-14,3132,1065
2012-11-15,3139,1065
2012-11-16,3066,1069
2012-11-17,3060,1065
2012-11-18,3051,1063
2012-11-19,3028,1067
2012-11-20,3024,1073
2012-11-21,3031,1069
2012-11-22,3011,1067
2012-11-23,2997,1078
2012-11-24,3024,1065
2012-11-25,3049,1058
2012-11-26,3043,1060
2012-11-27,3021,1065
2012-11-28,2988,1073
2012-11-29,3000,1059
2012-11-30,2998,1055
2012-12-01,3066,1074
2012-12-02,3096,1079
2012-12-03,3058,1077
2012-12-04,3049,1086
2012-12-05,3040,1091
2012-12-06,3036,1083
2012-12-07,3022,1083
2012-12-08,3035,1096
2012-12-09,3046,1092
2012-12-10,3024,1102
2012-12-11,2998,1104
2012-12-12,2986,1101
2012-12-13,2959,1103
2012-12-14,2941,1097
2012-12-15,2977,1100
2012-12-16,2984,1091
2012-12-17,2974,1105
2012-12-18,2961,1118
2012-12-19,2974,1100
2012-12-20,2962,1086
2012-12-21,2951,1084
2012-12-22,2925,1072
2012-12-23,2917,1060
2012-12-24,2892,1073
2012-12-25,2867,1078
2012-12-26,2874,1073
2012-12-27,2859,1063
2012-12-28,2936,1073
2012-12-29,2959,1080
2012-12-30,2969,1091
2012-12-31,2976,1107
2013-01-01,3008,1114
2013-01-02,3061,1129
2013-01-03,3063,1138
2013-01-04,3071,1138
2013-01-05,3063,1137
2013-01-06,3072,1131
2013-01-07,3065,1134
2013-01-08,3075,1138
2013-01-09,3059,1125
2013-01-10,3025,1126
2013-01-11,3045,1121
2013-01-12,3055,1113
2013-01-13,3103,1116
2013-01-14,3095,1124
2013-01-15,3073,1137
2013-01-16,3074,1138
2013-01-17,3073,1126
2013-01-18,3085,1125
2013-01-19,3104,1137
2013-01-20,3123,1150
2013-01-21,3119,1139
2013-01-22,3095,1140
2013-01-23,3066,1135
2013-01-24,3080,1144
2013-01-25,3071,1128
2013-01-26,3086,1138
2013-01-27,3098,1139
2013-01-28,3084,1140
2013-01-29,3102,1151
2013-01-30,3095,1127
2013-01-31,3100,1117
2013-02-01,3138,1128
2013-02-02,3189,1126
2013-02-03,3284,1124
2013-02-04,3273,1141
2013-02-05,3140,1158
2013-02-06,3123,1165
2013-02-07,3116,1163
2013-02-08,3126,1147
2013-02-09,3124,1149
2013-02-10,3134,1157
2013-02-11,3150,1177
2013-02-12,3145,1177
2013-02-13,3123,1182
2013-02-14,3121,1192
2013-02-15,3099,1195
2013-02-16,3107,1195
2013-02-17,3155,1187
2013-02-18,3133,1202
2013-02-19,3126,1207
2013-02-20,3141,1192
2013-02-21,3121,1196
2013-02-22,3142,1193
2013-02-23,3169,1216
2013-02-24,3181,1220
2013-02-25,3148,1215
2013-02-26,3143,1220
2013-02-27,3142,1218
2013-02-28,3152,1217
2013-03-01,3207,1224
2013-03-02,3235,1244
2013-03-03,3240,1237
2013-03-04,3233,1240
2013-03-05,3205,1270
2013-03-06,3166,1263
2013-03-07,3155,1249
2013-03-08,3164,1256
2013-03-09,3208,1272
2013-03-10,3210,1276
2013-03-11,3224,1269
2013-03-12,3239,1275
2013-03-13,3241,1299
2013-03-14,3219,1288
2013-03-15,3237,1298
2013-03-16,3264,1311
2013-03-17,3294,1323
2013-03-18,3275,1319
2013-03-19,3277,1321
2013-03-20,3275,1312
2013-03-21,3273,1301
2013-03-22,3289,1298
2013-03-23,3292,1322
2013-03-24,3290,1337
2013-03-25,3268,1331
2013-03-26,3232,1337
2013-03-27,3253,1322
2013-03-28,3260,1325
2013-03-29,3286,1324
2013-03-30,3280,1317
2013-03-31,3296,1316
2013-04-01,3353,1335
2013-04-02,3323,1349
2013-04-03,3343,1339
2013-04-04,3334,1336
2013-04-05,3315,1334
2013-04-06,3335,1350
2013-04-07,3332,1347
2013-04-08,3327,1339
2013-04-09,3310,1355
2013-04-10,3327,1343
2013-04-11,3339,1346
2013-04-12,3345,1345
2013-04-13,3388,1354
2013-04-14,3398,1360
2013-04-15,3327,1354
2013-04-16,3346,1350
2013-04-17,3347,1367
2013-04-18,3347,1428
2013-04-19,3389,1504
2013-04-20,3388,1580
2013-04-21,3399,1608
2013-04-22,3393,1607
2013-04-23,3408,1608
2013-04-24,3387,1611
2013-04-25,3391,1603
2013-04-26,3413,1598
2013-04-27,3429,1633
2013-04-28,3444,1623
2013-04-29,3413,1617
2013-04-30,3411,1637
2013-05-01,3492,1662
2013-05-02,3496,1647
2013-05-03,3479,1666
2013-05-04,3508,1653
2013-05-05,3497,1659
2013-05-06,3478,1667
2013-05-07,3487,1679
2013-05-08,3473,1677
2013-05-09,3489,1680
2013-05-10,3481,1674
2013-05-11,3538,1655
2013-05-12,3543,1649
2013-05-13,3506,1667
2013-05-14,3499,1690
2013-05-15,3462,1688
2013-05-16,3448,1700
2013-05-17,3467,1690
2013-05-18,3507,1720
2013-05-19,3484,1709
2013-05-20,3473,1720
2013-05-21,3473,1718
2013-05-22,3479,1701
2013-05-23,3465,1700
2013-05-24,3461,1685
2013-05-25,3489,1691
2013-05-26,3517,1698
2013-05-27,3485,1691
2013-05-28,3463,1709
2013-05-29,3492,1704
2013-05-30,3507,1716
2013-05-31,3491,1700
2013-06-01,3519,1706
2013-06-02,3541,1706
2013-06-03,3525,1704
2013-06-04,3539,1722
2013-06-05,3506,1721
2013-06-06,3478,1712
2013-06-07,3456,1705
2013-06-08,3529,1730
2013-06-09,3540,1763
2013-06-10,3585,1788
2013-06-11,3600,1788
2013-06-12,3620,1794
2013-06-13,3630,1799
2013-06-14,3670,1796
2013-06-15,3722,1807
2013-06-16,3734,1806
2013-06-17,3701,1798
2013-06-18,3714,1830
2013-06-19,3739,1825
2013-06-20,3731,1830
2013-06-21,3708,1840
2013-06-22,3755,1834
2013-06-23,3782,1838
2013-06-24,3798,1836
2013-06-25,3791,1852
2013-06-26,3800,1835
2013-06-27,3798,1850
2013-06-28,3794,1847
2013-06-29,3838,1831
2013-06-30,3854,1816
2013-07-01,3885,1845
2013-07-02,3881,1867
2013-07-03,3883,1859
2013-07-04,3895,1862
2013-07-05,3921,1845
2013-07-06,3904,1849
2013-07-07,3938,1856
2013-07-08,3899,1860
2013-07-09,3909,1872
2013-07-10,3918,1863
2013-07-11,3941,1866
2013-07-12,3955,1873
2013-07-13,3989,1877
2013-07-14,3978,1863
2013-07-15,3982,1857
2013-07-16,3953,1883
2013-07-17,3972,1899
2013-07-18,3968,1877
2013-07-19,3970,1880
2013-07-20,3973,1872
2013-07-21,4005,1873
2013-07-22,3998,1891
2013-07-23,3984,1902
2013-07-24,3991,1909
2013-07-25,3972,1901
2013-07-26,3970,1889
2013-07-27,4018,1891
2013-07-28,4052,1886
2013-07-29,4062,1901
2013-07-30,4068,1911
2013-07-31,4068,1924
2013-08-01,4136,1902
2013-08-02,4194,1896
2013-08-03,4219,1898
2013-08-04,4239,1909
2013-08-05,4213,1906
2013-08-06,4207,1927
2013-08-07,4188,1922
2013-08-08,4188,1916
2013-08-09,4195,1912
2013-08-10,4216,1918
2013-08-11,4231,1912
2013-08-12,4229,1939
2013-08-13,4229,1939
2013-08-14,4237,1936
2013-08-15,4249,1929
2013-08-16,4250,1930
2013-08-17,4286,1942
2013-08-18,4300,1928
2013-08-19,4297,1939
2013-08-20,4289,1959
2013-08-21,4317,1961
2013-08-22,4317,1960
2013-08-23,4314,1947
2013-08-24,4322,1942
2013-08-25,4334,1926
2013-08-26,4334,1909
2013-08-27,4353,1931
2013-08-28,4309,1914
2013-08-29,4279,1913
2013-08-30,4296,1932
2013-08-31,4318,1919
2013-09-01,4364,1950
2013-09-02,4305,1959
2013-09-03,4266,1954
2013-09-04,4277,1965
2013-09-05,4253,1983
2013-09-06,4231,1921
2013-09-07,4325,1891
2013-09-08,4358,1899
2013-09-09,4363,1891
2013-09-10,4350,1888
2013-09-11,4330,1877
2013-09-12,4317,1882
2013-09-13,4270,1888
2013-09-14,4295,1902
2013-09-15,4321,1910
2013-09-16,4282,1899
2013-09-17,4271,1906
2013-09-18,4277,1899
2013-09-19,4216,1890
2013-09-20,4161,1893
2013-09-21,4215,1915
2013-09-22,4242,1899
2013-09-23,4177,1897
2013-09-24,4158,1889
2013-09-25,4160,1891
2013-09-26,4146,1882
2013-09-27,4134,1880
2013-09-28,4175,1891
2013-09-29,3971,1902
2013-09-30,4101,1881
2013-10-01,4186,1911
2013-10-02,4204,1924
2013-10-03,4211,1917
2013-10-04,4231,1908
2013-10-05,4370,1925
2013-10-06,4403,1956
2013-10-07,4372,1951
2013-10-08,4388,1973
2013-10-09,4452,1958
2013-10-10,4460,1931
2013-10-11,4479,1928
2013-10-12,4522,1952
2013-10-13,4512,1959
2013-10-14,4499,1948
2013-10-15,4509,1957
2013-10-16,4516,1941
2013-10-17,4519,1941
2013-10-18,4507,1943
2013-10-19,4518,1956
2013-10-20,4546,1930
2013-10-21,4519,1926
2013-10-22,4508,1933
2013-10-23,4508,1941
2013-10-24,4501,1954
2013-10-25,4501,1957
2013-10-26,4538,1947
2013-10-27,4552,1958
2013-10-28,4531,1958
2013-10-29,4529,1989
2013-10-30,4490,1976
2013-10-31,4453,1970
2013-11-01,4559,1990
2013-11-02,4631,1998
2013-11-03,4633,1987
2013-11-04,4633,1986
2013-11-05,4596,1990
2013-11-06,4602,2005
2013-11-07,4619,1989
2013-11-08,4639,1986
2013-11-09,4640,2007
2013-11-10,4652,2000
2013-11-11,4627,1992
2013-11-12,4641,1999
2013-11-13,4629,1992
2013-11-14,4632,1993
2013-11-15,4642,1988
2013-11-16,4676,2034
2013-11-17,4682,2024
2013-11-18,4638,2029
2013-11-19,4652,2016
2013-11-20,4647,2019
2013-11-21,4641,2002
2013-11-22,4640,2012
2013-11-23,4666,2019
2013-11-24,4701,2001
2013-11-25,4671,2002
2013-11-26,4669,2007
2013-11-27,4653,2103
2013-11-28,4639,2110
2013-11-29,4646,2100
2013-11-30,4706,2121
2013-12-01,4813,2127
2013-12-02,4773,2111
2013-12-03,4753,2120
2013-12-04,4756,2132
2013-12-05,4740,2126
2013-12-06,4744,2129
2013-12-07,4775,2268
2013-12-08,4790,2285
2013-12-09,4749,2287
2013-12-10,4747,2293
2013-12-11,4745,2280
2013-12-12,4756,2255
2013-12-13,4742,2244
2013-12-14,4765,2274
2013-12-15,4833,2262
2013-12-16,4799,2243
2013-12-17,4794,2011
2013-12-18,4775,2271
2013-12-19,4746,2272
2013-12-20,4745,2245
2013-12-21,4758,2249